TimeGMT,TemperatureF,Dew PointF,Humidity,Sea Level PressureIn,VisibilityMPH,Wind Direction,Wind SpeedMPH,Gust SpeedMPH,PrecipitationIn,Events,Conditions,WindDirDegrees,DateUTC
12:20 AM,37.4,37.4,100,30.01,0.2,West,2.3,-,N/A,Fog,Fog,270,2013-01-11 00:20:00
12:50 AM,37.4,37.4,100,30.01,0.2,Calm,Calm,-,N/A,Fog,Fog,0,2013-01-11 00:50:00
1:20 AM,37.4,37.4,100,30.01,0.2,Calm,Calm,-,N/A,Fog,Fog,0,2013-01-11 01:20:00
1:50 AM,37.4,37.4,100,30.01,0.2,Calm,Calm,-,N/A,,Light Drizzle,0,2013-01-11 01:50:00
2:20 AM,37.4,37.4,100,30.01,0.5,East,2.3,-,N/A,Rain,Light Rain,80,2013-01-11 02:20:00
2:50 AM,37.4,37.4,100,30.01,1.4,Calm,Calm,-,N/A,,Overcast,0,2013-01-11 02:50:00
3:20 AM,37.4,37.4,100,30.01,1.6,SSE,2.3,-,N/A,,Overcast,150,2013-01-11 03:20:00
3:50 AM,37.4,37.4,100,30.01,1.9,Calm,Calm,-,N/A,,Overcast,0,2013-01-11 03:50:00
4:20 AM,37.4,37.4,100,30.01,1.9,SSE,2.3,-,N/A,,Overcast,160,2013-01-11 04:20:00
4:50 AM,37.4,37.4,100,30.01,1.9,ESE,2.3,-,N/A,,Overcast,120,2013-01-11 04:50:00
5:20 AM,37.4,37.4,100,30.01,1.9,Calm,Calm,-,N/A,,Overcast,0,2013-01-11 05:20:00
5:50 AM,37.4,37.4,100,30.01,-9999.0,Calm,Calm,-,N/A,,Overcast,0,2013-01-11 05:50:00
6:20 AM,37.4,37.4,100,30.01,-9999.0,Calm,Calm,-,N/A,Rain,Light Rain,0,2013-01-11 06:20:00
6:50 AM,37.4,37.4,100,30.01,3.1,NE,3.5,-,N/A,,Overcast,40,2013-01-11 06:50:00
7:20 AM,37.4,37.4,100,30.01,5.0,Variable,3.5,-,N/A,,Overcast,0,2013-01-11 07:20:00
7:50 AM,37.4,37.4,100,30.01,4.3,ENE,4.6,-,N/A,,Overcast,70,2013-01-11 07:50:00
8:20 AM,39.2,37.4,93,30.01,3.1,ESE,2.3,-,N/A,,Overcast,110,2013-01-11 08:20:00
8:50 AM,39.2,39.2,100,30.01,5.0,East,4.6,-,N/A,Rain,Light Rain Showers,90,2013-01-11 08:50:00
9:20 AM,39.2,37.4,93,30.01,5.0,NE,3.5,-,N/A,Rain,Light Rain,50,2013-01-11 09:20:00
9:50 AM,39.2,39.2,100,30.01,5.0,Variable,3.5,-,N/A,,Mostly Cloudy,0,2013-01-11 09:50:00
10:20 AM,39.2,39.2,100,30.01,5.0,Variable,2.3,-,N/A,,Mostly Cloudy,0,2013-01-11 10:20:00
10:50 AM,39.2,39.2,100,30.01,5.6,Variable,2.3,-,N/A,,Mostly Cloudy,0,2013-01-11 10:50:00
11:20 AM,41.0,39.2,93,30.01,5.0,NNE,3.5,-,N/A,,Mostly Cloudy,30,2013-01-11 11:20:00
11:50 AM,41.0,39.2,93,30.01,5.6,ENE,3.5,-,N/A,,Mostly Cloudy,70,2013-01-11 11:50:00
12:20 PM,41.0,41.0,100,30.01,6.2,Variable,2.3,-,N/A,,Mostly Cloudy,0,2013-01-11 12:20:00
12:50 PM,41.0,39.2,93,30.01,6.2,NE,2.3,-,N/A,,Mostly Cloudy,40,2013-01-11 12:50:00
1:20 PM,42.8,39.2,87,29.98,6.2,Variable,3.5,-,N/A,,Mostly Cloudy,0,2013-01-11 13:20:00
1:50 PM,42.8,39.2,87,29.98,6.2,NNE,2.3,-,N/A,,Mostly Cloudy,20,2013-01-11 13:50:00
2:20 PM,42.8,39.2,87,29.98,6.2,Variable,2.3,-,N/A,,Mostly Cloudy,0,2013-01-11 14:20:00
2:50 PM,42.8,39.2,87,29.98,6.2,Variable,2.3,-,N/A,,Mostly Cloudy,0,2013-01-11 14:50:00
3:20 PM,42.8,39.2,87,29.98,6.2,Variable,3.5,-,N/A,,Mostly Cloudy,0,2013-01-11 15:20:00
3:50 PM,41.0,39.2,93,29.98,6.2,Variable,3.5,-,N/A,,Scattered Clouds,0,2013-01-11 15:50:00
4:20 PM,41.0,37.4,87,29.98,6.2,ENE,4.6,-,N/A,,Scattered Clouds,60,2013-01-11 16:20:00
4:50 PM,39.2,37.4,93,29.95,5.6,Variable,3.5,-,N/A,,Mostly Cloudy,0,2013-01-11 16:50:00
5:20 PM,39.2,37.4,93,29.95,5.6,ESE,5.8,-,N/A,,Mostly Cloudy,110,2013-01-11 17:20:00
5:50 PM,41.0,37.4,87,29.95,6.2,East,5.8,-,N/A,,Mostly Cloudy,100,2013-01-11 17:50:00
6:20 PM,41.0,35.6,81,29.95,6.2,East,5.8,-,N/A,,Mostly Cloudy,100,2013-01-11 18:20:00
6:50 PM,39.2,35.6,87,29.95,6.2,ENE,4.6,-,N/A,,Mostly Cloudy,60,2013-01-11 18:50:00
7:20 PM,39.2,35.6,87,29.95,6.2,NE,6.9,-,N/A,,Mostly Cloudy,50,2013-01-11 19:20:00
7:50 PM,37.4,35.6,93,29.95,6.2,ENE,6.9,-,N/A,,Scattered Clouds,60,2013-01-11 19:50:00
8:20 PM,37.4,35.6,93,29.95,6.2,East,5.8,-,N/A,,Scattered Clouds,90,2013-01-11 20:20:00
8:50 PM,37.4,33.8,87,29.95,6.2,ENE,4.6,-,N/A,,Partly Cloudy,60,2013-01-11 20:50:00
9:20 PM,35.6,33.8,93,29.95,6.2,ENE,5.8,-,N/A,,Partly Cloudy,60,2013-01-11 21:20:00
9:50 PM,37.4,35.6,93,29.95,6.2,ENE,6.9,-,N/A,,Unknown,60,2013-01-11 21:50:00
10:20 PM,37.4,33.8,87,29.95,-9999.0,ENE,9.2,-,N/A,,Clear,70,2013-01-11 22:20:00
10:50 PM,37.4,33.8,87,29.95,-9999.0,ENE,8.1,-,N/A,,Clear,70,2013-01-11 22:50:00
11:20 PM,37.4,33.8,87,29.95,-9999.0,East,5.8,-,N/A,,Clear,90,2013-01-11 23:20:00
11:50 PM,37.4,33.8,87,29.95,-9999.0,ENE,5.8,-,N/A,,Clear,70,2013-01-11 23:50:00